Lapse_Rate
1.0 1.2 1.2 0.9 0.8 0.8 0.6 0.5 0.4 0.3 0.5 0.5 0.5 0.5 0.6 0.5 -0.3 -1.0 -0.2 2.8 2.5 5.1 4.8 4.1 4.9 4.7 4.6 4.5 4.2 3.9 6.5 6.5 6.5 6.5 6.5 6.1 6.5 5.7 5.1 5.8 5.3 5.0 4.9 5.1 4.7
1.2 1.1 1.0 0.7 0.5 0.4 0.3 0.2 0.2 0.2 0.1 0.2 0.2 0.3 0.4 0.5 -1.7 -0.7 2.8 4.0 4.7 5.4 4.4 4.5 4.7 4.7 4.6 5.0 4.8 6.2 6.5 6.5 6.5 6.5 6.5 6.3 6.2 5.9 6.2 6.2 5.7 5.0 4.5 4.2 4.9
1.2 1.1 0.9 0.6 0.5 0.4 0.1 -0.2 -0.2 -0.2 -0.0 0.1 0.0 0.4 0.6 0.1 1.5 4.9 4.7 4.7 5.8 5.7 5.1 5.1 4.9 5.5 5.8 5.6 5.5 6.1 6.5 6.5 6.3 5.5 5.8 6.3 6.3 5.4 6.4 6.5 6.1 5.4 3.7 3.8 4.6
1.3 1.1 0.7 0.5 0.4 0.2 0.3 0.1 0.0 0.1 0.0 -0.0 -0.1 0.1 0.6 0.0 6.5 4.2 5.8 6.2 5.8 5.0 5.4 4.9 5.4 5.6 6.4 6.5 5.8 6.5 6.1 6.3 6.1 5.8 6.1 6.5 6.0 6.3 5.6 6.6 5.0 3.9 4.4 4.7 5.0
1.0 0.8 0.5 0.3 0.3 0.3 0.1 0.2 0.3 0.4 0.4 0.1 -0.0 0.2 0.4 3.5 3.9 4.5 5.1 5.4 5.2 5.5 5.6 5.5 5.6 5.5 6.5 6.3 6.3 6.5 6.5 6.0 5.4 5.2 5.3 5.2 6.5 6.4 6.3 5.2 4.8 4.5 4.0 4.0 3.6
1.1 0.9 0.6 0.4 0.4 0.3 0.2 0.4 0.6 0.6 0.4 -0.0 -0.2 0.6 1.2 6.1 3.8 3.9 4.4 5.1 5.3 5.6 5.2 5.1 5.5 5.2 6.0 6.3 6.5 6.1 6.2 6.2 5.5 5.7 5.4 6.3 6.4 5.8 5.5 4.2 4.3 4.2 4.2 4.4 3.8
1.2 0.8 0.4 0.2 0.4 0.4 0.5 0.7 0.5 0.3 -0.1 -0.1 0.2 1.1 2.5 4.8 3.8 4.0 5.0 5.2 5.4 5.6 5.6 5.6 6.0 6.0 6.0 6.5 5.9 5.8 6.5 6.5 6.4 6.1 6.4 6.0 6.5 6.5 4.2 5.3 4.9 5.3 3.9 3.3 2.9
1.0 0.8 0.4 0.3 0.4 0.6 0.8 0.6 0.4 0.3 0.6 1.5 2.2 2.0 4.1 4.9 4.1 4.7 4.9 5.4 5.5 6.0 6.3 6.1 6.2 6.2 6.4 5.7 6.1 6.5 6.5 6.5 6.5 6.5 6.2 6.3 6.5 6.5 4.7 6.3 6.1 4.8 3.7 3.2 3.1
0.7 0.5 0.3 0.3 0.4 0.7 0.9 0.3 0.9 1.8 3.1 3.4 2.6 2.9 5.9 5.5 5.8 5.1 5.1 6.1 6.1 6.6 6.4 7.1 6.4 5.8 6.3 6.5 6.5 6.5 6.5 6.5 6.5 6.5 6.5 6.5 6.5 6.5 6.0 4.5 5.9 5.0 4.3 4.0 3.6
0.7 0.4 0.3 0.4 0.4 0.7 0.5 0.3 0.9 2.5 2.2 3.1 3.3 4.3 5.2 5.6 5.6 5.7 5.0 6.4 6.5 6.5 6.4 6.3 4.9 6.5 6.5 6.5 6.5 6.5 6.5 6.5 6.5 6.5 6.5 6.5 6.5 6.5 6.5 6.6 6.6 5.9 4.7 3.5 3.9
0.6 0.4 0.4 0.6 0.7 1.4 -1.1 -1.5 0.6 3.5 1.0 3.2 4.0 4.8 4.6 4.6 4.8 6.2 5.9 6.6 6.7 6.2 6.5 6.2 6.5 6.5 6.5 6.5 6.5 6.5 6.5 6.5 6.5 6.5 6.5 6.5 6.5 6.5 6.6 6.4 6.6 6.0 5.7 5.0 5.3
0.9 0.4 0.5 0.7 1.1 1.9 -0.7 -0.3 2.8 3.0 4.9 3.0 3.3 3.2 3.6 4.8 5.8 6.1 6.4 6.3 6.3 6.5 6.5 6.5 6.5 6.5 6.5 6.5 6.5 6.5 6.5 6.5 6.5 6.5 6.5 6.5 6.5 6.5 6.5 6.6 6.8 6.8 6.8 6.1 5.7
1.0 0.8 0.9 1.1 1.4 -0.3 0.0 2.2 2.8 4.0 6.0 3.9 5.0 5.7 6.1 5.8 5.9 6.0 6.2 6.0 6.4 6.5 6.5 6.5 6.5 6.5 6.5 6.5 6.5 6.5 6.5 6.5 6.5 6.5 6.5 6.5 6.5 6.5 6.5 6.7 7.0 7.0 6.8 6.0 5.9
0.9 1.0 1.2 1.4 1.8 0.1 1.6 1.7 2.7 4.1 6.5 6.5 6.3 6.1 5.2 4.3 6.4 6.4 6.4 6.4 6.4 6.5 6.5 6.5 6.5 6.5 6.5 6.5 6.5 6.5 6.5 6.5 6.5 6.5 6.5 6.5 6.5 6.5 6.5 6.5 6.5 6.8 7.1 7.2 6.5
0.9 1.1 1.6 1.8 1.3 1.9 2.2 1.2 2.8 4.3 6.5 6.5 6.3 6.3 4.4 5.4 5.9 6.3 5.5 6.6 6.5 6.5 6.5 6.5 6.5 6.5 6.5 6.5 6.5 6.5 6.5 6.5 6.5 6.5 6.5 6.5 6.5 6.5 6.5 6.5 6.5 6.5 7.0 7.3 7.6
0.8 1.2 1.9 0.8 -0.4 0.9 0.8 1.7 3.7 6.5 6.5 6.5 6.1 6.4 6.5 5.7 6.0 5.1 4.6 3.9 5.8 6.5 6.5 6.5 6.0 6.5 6.5 6.5 6.5 6.5 6.5 6.5 6.5 6.5 6.5 6.5 6.5 6.5 6.5 6.5 6.5 6.6 7.0 7.3 7.6
1.0 1.5 2.2 1.0 -0.2 0.4 0.0 3.0 6.5 6.5 6.5 6.5 6.5 6.5 6.5 6.5 6.5 6.5 6.5 6.5 6.5 6.5 6.5 6.5 6.5 6.5 6.3 6.5 6.5 6.5 6.5 6.5 6.5 6.5 6.5 6.5 6.5 6.5 6.5 6.5 6.5 6.5 7.0 7.4 7.6
0.7 1.2 1.6 1.2 -0.8 -0.8 1.2 6.1 6.5 6.5 6.5 6.5 6.5 6.5 6.5 6.5 6.5 6.5 6.5 6.5 6.5 6.5 6.5 6.5 6.5 6.5 6.5 6.5 6.5 6.5 6.5 6.5 6.5 6.5 6.5 6.5 6.5 6.5 6.5 6.8 7.0 7.2 7.3 7.4 7.4
0.0 -0.5 0.5 0.0 -0.8 -1.0 2.7 6.5 6.5 6.5 6.5 6.5 6.5 6.5 6.5 6.5 6.5 6.5 6.5 6.5 6.5 6.5 6.5 6.5 6.5 6.5 6.5 6.5 6.5 6.5 6.5 6.5 6.5 6.5 6.5 6.5 6.5 6.5 6.5 6.5 6.7 6.9 7.1 7.2 7.3
-1.8 0.7 1.5 -0.4 -1.3 0.0 5.4 6.5 6.5 6.4 6.4 6.5 6.5 6.5 6.5 6.5 6.5 6.5 6.5 6.5 6.5 6.4 6.4 6.5 6.5 6.5 6.5 6.2 6.5 6.5 6.5 6.5 6.5 6.5 6.5 6.5 6.5 6.5 6.5 6.5 6.5 6.5 6.8 7.1 7.3
-1.6 2.4 2.1 -1.4 -1.2 0.6 6.5 6.5 6.5 6.2 5.7 6.5 6.5 6.5 6.5 6.5 6.5 6.5 6.5 6.5 6.5 6.5 6.1 6.5 6.5 6.5 6.5 6.5 6.5 6.5 6.5 6.5 6.5 6.5 6.5 6.5 6.5 6.5 6.5 6.5 6.5 6.5 6.9 6.9 7.0
-1.5 5.8 1.2 -2.2 3.3 4.6 6.5 6.5 6.8 6.3 5.3 6.3 6.5 6.5 6.5 6.5 6.5 6.5 6.5 6.5 6.4 6.3 6.5 6.5 6.5 6.5 6.5 6.5 6.5 6.5 6.5 6.5 6.5 6.5 6.5 6.5 6.5 6.5 6.5 6.5 6.7 6.8 7.0 7.4 7.6
-0.3 0.5 0.2 -1.0 6.5 6.5 6.4 6.5 6.4 6.5 6.5 6.5 6.5 6.5 6.5 6.5 6.5 6.5 6.5 6.5 6.2 6.5 6.5 6.5 6.5 6.5 6.5 6.5 6.5 6.5 6.5 6.5 6.5 6.5 6.5 6.5 6.5 6.5 6.6 6.6 6.8 6.8 7.1 7.5 8.0
0.1 6.5 2.1 1.4 3.4 6.3 6.5 6.5 6.5 6.4 6.5 6.5 6.5 6.4 6.5 6.5 6.5 6.5 6.5 6.5 6.7 6.3 7.2 6.8 6.5 6.5 6.5 6.5 6.5 6.5 6.5 6.5 6.5 6.5 6.5 6.5 6.5 6.5 6.5 6.5 6.7 7.0 7.3 6.8 6.5
-0.8 5.3 4.7 6.5 6.0 5.9 6.3 6.5 6.5 6.5 6.1 5.7 6.5 6.5 6.5 6.5 6.5 6.5 6.5 6.5 6.5 6.8 6.1 6.5 6.5 6.5 6.5 6.5 6.5 6.5 6.5 6.5 6.5 6.5 6.5 6.5 6.5 6.5 6.5 6.5 6.8 7.3 7.5 7.5 7.5
1.6 3.9 3.1 4.5 5.2 6.4 6.5 6.5 6.5 6.5 6.5 6.5 6.5 6.5 6.5 6.5 6.5 6.5 6.5 6.5 6.5 6.3 6.5 6.5 6.5 6.5 6.5 6.5 6.5 6.5 6.5 6.5 6.5 6.5 6.5 6.5 6.5 6.5 7.0 7.2 7.1 7.3 7.4 7.5 7.5
0.3 1.8 3.3 5.8 6.0 6.5 6.5 6.5 6.5 6.5 6.6 6.6 6.5 6.5 6.5 6.5 6.0 6.3 6.3 6.5 6.2 6.5 6.5 6.5 6.5 6.5 6.5 6.5 6.5 6.5 6.5 6.5 6.5 6.5 6.5 6.5 6.5 6.6 6.5 6.7 7.0 7.3 7.4 7.3 7.4
Wind_Speed
19 20 19 19 19 19 19 18 17 16 15 15 15 15 16 15 12 0 4 4 3 8 5 4 2 2 2 3 3 2 2 4 5 8 5 3 4 3 2 2 2 5 4 4 1
20 20 20 21 20 19 18 18 16 16 15 14 13 13 13 14 1 3 6 5 6 10 4 5 4 3 1 2 1 3 3 8 5 5 4 4 5 5 2 4 5 5 7 6 1
21 21 22 22 21 21 19 19 17 16 14 13 12 12 13 8 3 1 6 5 8 6 3 2 3 3 1 1 2 3 5 3 4 5 2 3 3 4 5 7 10 8 10 5 6
22 22 23 23 22 22 20 19 19 17 15 12 10 10 10 1 4 1 4 7 6 5 3 4 3 1 2 4 3 3 7 4 4 3 2 3 2 4 10 14 4 13 4 4 7
24 24 24 24 23 23 21 20 20 17 15 12 8 8 2 1 4 5 8 7 4 2 3 3 4 4 4 3 2 4 4 3 5 6 6 7 11 10 17 12 10 10 9 11 10
25 25 24 23 23 24 22 20 21 19 14 9 4 3 2 3 1 2 6 4 2 3 2 4 3 4 2 2 4 2 5 8 5 7 7 10 16 6 3 16 17 12 16 14 12
26 26 25 24 23 23 23 22 18 11 6 2 3 2 2 4 2 2 3 1 1 2 3 2 2 3 3 4 2 4 7 7 7 6 8 6 11 12 22 6 8 7 8 7 10
27 27 26 24 24 23 22 20 9 5 3 3 4 1 3 1 1 3 1 2 2 1 3 2 3 3 2 4 5 4 2 5 3 3 4 8 19 4 8 11 15 11 8 6 7
27 27 26 24 24 23 22 8 4 5 3 5 3 1 3 2 2 1 1 2 3 2 3 3 3 1 2 1 3 2 6 4 7 4 1 5 8 5 2 3 8 7 7 7 6
28 27 25 23 23 23 16 2 2 2 1 1 1 2 5 4 4 1 0 1 2 2 3 3 4 0 1 2 5 4 6 6 7 3 3 9 19 15 19 9 13 13 10 6 4
30 29 26 24 21 19 8 3 5 3 8 2 5 2 3 7 3 1 1 2 2 4 2 0 1 7 9 9 6 3 6 13 15 12 12 20 20 19 11 12 11 7 10 5 1
30 30 26 23 16 14 5 6 3 3 6 3 4 4 5 2 3 2 1 2 1 3 1 0 10 9 5 5 8 8 14 19 15 13 10 14 16 16 14 3 5 6 10 10 8
29 29 25 24 6 5 5 3 2 4 0 6 2 2 4 3 2 4 3 1 4 3 5 6 6 3 1 4 7 12 11 14 13 10 6 13 9 4 6 9 11 12 9 12 12
29 27 22 21 5 2 2 4 3 3 4 6 3 4 7 4 1 3 2 2 2 4 3 6 4 3 3 6 7 14 11 17 16 6 8 4 4 4 6 9 11 11 13 12 13
29 24 17 12 1 3 6 11 2 2 5 4 5 4 8 6 6 2 5 2 4 5 2 6 5 7 10 9 6 10 8 11 12 8 4 9 5 3 7 6 8 11 13 13 13
29 19 11 4 3 1 13 4 2 5 5 4 5 7 7 7 6 8 8 8 2 4 4 10 5 4 4 4 6 6 5 5 2 4 8 17 11 4 3 5 7 11 13 13 15
26 13 4 2 4 16 6 2 4 4 5 8 5 7 5 6 6 8 5 8 5 8 6 9 4 2 6 6 5 9 6 3 2 4 6 2 8 2 9 13 13 13 12 13 14
21 4 4 5 12 4 2 5 3 3 4 3 4 8 3 10 4 8 3 4 6 4 4 5 6 6 11 4 5 10 4 3 6 3 4 4 3 6 14 13 14 14 13 14 15
9 3 3 8 10 1 4 5 1 2 4 7 10 4 3 5 6 8 4 3 4 6 4 4 6 12 14 4 2 5 3 5 5 7 6 3 5 5 11 10 11 12 14 14 14
2 2 4 22 9 4 5 4 1 3 5 4 4 6 5 7 7 9 3 2 5 6 1 4 8 4 5 8 2 5 6 4 3 5 7 4 3 4 6 11 9 10 10 11 13
3 3 3 22 4 7 4 2 3 4 6 6 4 5 3 4 3 4 4 2 3 6 6 4 4 8 9 4 13 8 5 4 3 3 3 4 4 4 9 8 8 8 10 11 12
2 3 5 6 5 3 3 3 5 5 6 4 2 2 2 4 4 3 3 2 1 4 8 3 4 6 13 19 6 5 6 11 4 6 4 3 3 6 7 7 7 8 9 8 8
3 1 4 4 4 3 3 3 3 5 5 5 4 4 3 3 6 4 4 4 4 10 5 4 3 6 10 4 5 4 8 12 6 5 4 3 4 3 2 6 5 6 6 6 8
3 3 5 5 2 4 2 3 5 4 2 3 2 4 5 3 5 6 11 6 12 10 19 6 3 6 9 13 11 14 15 11 2 2 4 4 7 5 10 11 11 12 11 8 6
4 1 2 3 5 4 3 2 3 6 5 7 2 6 5 4 5 3 6 9 11 9 5 3 6 5 11 14 14 14 14 10 2 4 2 8 2 8 9 12 12 13 17 15 12
3 3 3 2 2 2 5 2 2 4 2 2 4 7 4 3 5 12 12 14 5 6 5 3 3 5 8 8 5 0 10 10 9 12 4 6 5 16 14 13 15 16 19 17 15
1 1 3 3 1 1 1 1 1 3 3 3 3 2 5 5 7 14 12 11 7 4 3 3 3 6 3 9 4 6 13 16 12 10 5 7 7 14 17 19 18 19 18 13 12
Wind_Direction
355 352 348 342 338 337 332 330 326 323 323 322 321 325 326 324 322 270 239 212 190 175 113 116 73 78 70 116 108 135 105 229 231 171 231 179 188 188 150 233 239 209 203 239 286
353 349 346 341 337 334 330 326 324 322 319 316 316 320 323 329 307 247 247 256 214 154 118 150 169 134 69 169 132 129 187 222 210 192 221 197 181 183 210 204 233 268 254 246 236
352 348 344 340 336 332 330 323 320 319 316 315 315 318 319 332 333 351 318 195 151 139 98 102 93 116 177 45 230 193 230 242 266 236 220 228 233 207 200 230 232 213 243 237 223
349 346 343 339 335 330 329 324 322 319 314 312 309 313 316 274 301 308 59 128 111 103 98 105 93 128 226 214 198 240 255 230 304 350 234 243 285 257 215 241 189 224 224 188 223
348 346 344 339 336 330 327 323 316 311 308 310 308 308 335 123 258 350 79 79 68 97 128 149 168 180 218 202 265 227 279 288 280 302 272 292 264 258 255 254 255 247 240 235 238
347 345 342 339 336 329 325 324 317 313 308 302 288 270 161 201 107 31 112 85 100 116 142 147 200 206 236 240 191 268 263 267 265 250 244 242 259 178 260 238 257 252 244 246 236
346 344 342 339 337 330 325 324 322 323 324 280 197 162 121 203 7 141 106 108 138 139 145 191 176 151 157 287 300 286 301 292 214 231 236 204 270 224 250 190 223 247 247 241 234
346 345 341 340 336 331 330 325 334 15 61 97 135 85 212 318 42 107 102 90 92 117 120 136 116 118 184 314 348 308 275 317 9 154 249 178 266 272 304 210 232 248 256 252 251
346 344 343 340 337 329 334 333 28 43 100 103 33 331 61 347 49 31 180 117 110 69 33 88 64 106 41 66 332 307 275 276 317 236 272 206 286 286 10 163 269 248 256 268 278
345 344 342 340 338 329 337 334 2 31 21 256 239 18 8 323 309 41 353 127 110 109 49 51 49 170 60 107 260 256 263 253 248 295 327 285 270 276 292 288 263 273 279 267 273
345 344 341 340 341 339 360 32 18 354 37 89 276 237 267 290 270 31 130 104 85 72 195 276 257 228 216 203 225 256 265 271 277 272 281 271 279 285 273 277 282 266 269 281 205
344 342 338 339 341 360 30 69 118 205 325 304 256 276 240 266 335 10 137 134 149 235 169 288 249 242 205 207 234 239 264 277 283 269 198 264 273 279 285 327 11 44 54 55 48
343 340 335 336 334 43 71 75 294 153 207 306 254 347 321 2 325 304 155 137 213 233 206 196 241 112 247 235 238 240 243 262 248 282 248 267 278 286 67 63 50 43 52 52 47
343 340 335 338 46 315 60 329 292 195 63 324 354 1 347 333 118 315 277 248 264 262 244 236 275 233 244 249 202 273 229 249 261 260 264 174 278 272 141 87 55 41 37 37 39
343 341 342 24 239 48 324 332 150 66 2 323 347 329 335 44 323 35 7 312 257 261 317 257 280 293 280 257 184 261 251 245 250 237 245 246 250 237 142 91 61 47 43 36 37
342 341 341 16 30 70 332 320 46 41 257 14 360 357 5 1 0 320 17 26 1 303 249 272 322 262 258 276 230 278 307 265 197 195 240 243 212 200 248 141 91 64 51 41 37
341 344 32 66 300 315 333 52 23 116 341 350 339 354 343 326 353 8 48 32 22 349 5 320 277 305 17 343 328 9 344 283 298 223 251 281 209 221 95 99 102 84 59 46 39
339 7 28 83 332 317 73 42 71 23 358 333 321 307 53 13 17 349 32 28 21 18 303 330 326 14 356 19 298 296 221 258 275 251 274 297 247 124 106 92 86 76 66 49 35
344 0 34 339 344 48 69 49 65 334 301 329 317 5 11 13 1 359 48 30 53 21 348 313 263 330 337 342 278 321 324 318 259 248 259 207 106 107 114 98 71 56 44 41 37
61 39 345 340 350 56 68 102 79 28 332 348 357 38 350 337 358 11 310 357 350 18 212 298 295 284 319 321 269 44 284 308 251 269 241 197 128 21 107 86 70 57 43 31 28
54 57 275 348 44 48 86 92 66 30 23 24 4 317 353 343 310 284 295 59 8 330 326 299 235 293 337 336 313 327 13 308 274 25 301 324 85 36 55 52 58 45 31 17 13
63 45 322 350 49 33 60 26 35 2 12 13 88 69 343 340 303 288 319 288 72 340 331 279 274 278 286 270 305 144 71 35 19 334 306 269 103 40 36 54 49 32 20 19 17
68 317 331 38 76 31 13 61 72 18 20 12 354 55 35 328 339 293 334 330 357 347 321 289 280 319 319 108 42 11 349 347 302 242 254 298 77 44 353 52 51 26 34 6 349
71 28 1 34 32 93 50 26 2 13 110 355 313 48 1 293 236 283 303 314 340 323 318 5 288 258 268 279 309 304 319 326 267 269 337 345 342 44 26 22 21 13 2 342 317
25 85 174 11 25 55 65 65 9 360 5 14 56 10 339 298 297 247 305 310 310 315 336 315 272 274 264 273 279 282 301 320 300 264 334 342 70 16 355 1 7 360 347 341 339
93 100 34 73 5 50 8 42 32 323 287 320 352 315 293 231 249 289 316 306 265 324 337 342 289 306 292 298 328 328 38 32 22 15 4 337 64 4 20 3 357 347 331 331 331
2 61 102 334 36 91 88 328 43 343 277 297 290 283 293 274 270 285 269 266 260 283 304 303 300 311 294 324 313 114 12 37 5 39 351 27 10 357 353 342 334 328 315 326 340